#timestamp,LO_Frequency,Hit,Temp,Hum 
1479369615.1,286046891.1,N,0.0,0.0
1479369635.8,286046893.7,N,0.0,0.0
1479369655.7,286046891.0,N,0.0,0.0
1479369675.5,286046891.1,N,0.0,0.0
1479369695.4,286046891.0,N,0.0,0.0
1479369715.2,286046895.6,N,0.0,0.0
1479369735.0,286046895.4,N,0.0,0.0
1479369735.9,286046895.4,N,0.0,0.0
1479369755.8,286046895.4,N,0.0,0.0
1479369775.6,286046894.3,N,0.0,0.0
1479369795.4,286046896.6,N,0.0,0.0
1479369815.3,286046897.2,N,0.0,0.0
1479369835.1,286046899.2,N,0.0,0.0
1479369855.9,286046900.3,N,0.0,0.0
1479369875.7,286046902.4,N,0.0,0.0
1479369895.5,286046903.8,N,0.0,0.0
1479369915.4,286046903.7,N,0.0,0.0
1479369935.2,286046903.8,N,0.0,0.0
1479369955.0,286046905.6,N,0.0,0.0
1479369955.9,286046905.6,N,0.0,0.0
1479369975.8,286046903.7,N,0.0,0.0
1479369995.6,286046904.4,N,0.0,0.0
1479370015.5,286046904.6,N,0.0,0.0
1479370035.3,286046908.7,N,0.0,0.0
1479370055.1,286046913.7,N,0.0,0.0
1479370075.9,286046917.0,N,0.0,0.0
1479370095.7,286046921.2,N,0.0,0.0
1479370115.5,286046922.4,N,0.0,0.0
1479370135.4,286046921.7,N,0.0,0.0
1479370155.2,286046925.8,N,0.0,0.0
1479370175.1,286046926.7,N,0.0,0.0
1479370176.0,286046926.7,N,0.0,0.0
1479370195.8,286046930.2,N,0.0,0.0
1479370215.6,286046932.1,N,0.0,0.0
1479370235.5,286046933.7,N,0.0,0.0
1479370255.3,286046937.1,N,0.0,0.0
1479370275.1,286046941.8,N,0.0,0.0
1479370295.9,286046940.1,N,0.0,0.0
1479370315.7,286046938.6,N,0.0,0.0
1479370335.6,286046934.5,N,0.0,0.0
1479370355.4,286046933.8,N,0.0,0.0
1479370375.2,286046930.8,N,0.0,0.0
1479370395.1,286046924.5,N,0.0,0.0
1479370396.0,286046924.5,N,0.0,0.0
1479370415.8,286046923.8,N,0.0,0.0
1479370435.6,286046921.3,N,0.0,0.0
1479370455.5,286046919.9,N,0.0,0.0
1479370475.3,286046920.9,N,0.0,0.0
1479370495.2,286046920.0,N,0.0,0.0
1479370515.9,286046919.7,N,0.0,0.0
1479370535.7,286046920.7,N,0.0,0.0
1479370555.6,286046921.1,N,0.0,0.0
1479370575.4,286046918.5,N,0.0,0.0
1479370595.2,286046919.3,N,0.0,0.0
1479370615.1,286046915.0,N,0.0,0.0
1479370616.0,286046915.0,N,0.0,0.0
1479370635.8,286046917.7,N,0.0,0.0
1479370655.7,286046917.6,N,0.0,0.0
1479370675.5,286046917.3,N,0.0,0.0
1479370695.3,286046915.2,N,0.0,0.0
1479370715.2,286046915.8,N,0.0,0.0
1479370735.0,286046916.1,N,0.0,0.0
1479370735.9,286046916.1,N,0.0,0.0
1479370755.7,286046914.9,N,0.0,0.0
1479370775.6,286046915.8,N,0.0,0.0
1479370795.4,286046916.4,N,0.0,0.0
1479370815.3,286046916.3,N,0.0,0.0
1479370835.1,286046915.2,N,0.0,0.0
1479370836.0,286046915.2,N,0.0,0.0
1479370855.8,286046916.3,N,0.0,0.0
1479370875.7,286046915.4,N,0.0,0.0
1479370895.5,286046918.0,N,0.0,0.0
1479370915.3,286046915.0,N,0.0,0.0
1479370935.2,286046915.3,N,0.0,0.0
1479370955.0,286046917.3,N,0.0,0.0
1479370955.9,286046917.3,N,0.0,0.0
1479370975.8,286046919.2,N,0.0,0.0
1479370995.6,286046919.2,N,0.0,0.0
1479371015.4,286046916.7,N,0.0,0.0
1479371035.3,286046919.5,N,0.0,0.0
1479371055.1,286046919.3,N,0.0,0.0
1479371075.9,286046918.9,N,0.0,0.0
1479371095.7,286046919.5,N,0.0,0.0
1479371115.5,286046919.1,N,0.0,0.0
1479371135.4,286046919.2,N,0.0,0.0
1479371155.2,286046918.9,N,0.0,0.0
1479371175.0,286046918.2,N,0.0,0.0
1479371175.9,286046918.2,N,0.0,0.0
1479371195.8,286046918.5,N,0.0,0.0
1479371215.6,286046921.1,N,0.0,0.0
1479371235.4,286046921.0,N,0.0,0.0
1479371255.3,286046921.2,N,0.0,0.0
1479371275.1,286046921.0,N,0.0,0.0
1479371295.9,286046920.0,N,0.0,0.0
1479371315.7,286046922.0,N,0.0,0.0
1479371335.5,286046922.3,N,0.0,0.0
1479371355.4,286046922.8,N,0.0,0.0
1479371375.2,286046922.8,N,0.0,0.0
1479371395.0,286046921.8,N,0.0,0.0
1479371396.0,286046921.8,N,0.0,0.0
1479371415.8,286046921.4,N,0.0,0.0
1479371435.6,286046921.8,N,0.0,0.0
1479371455.5,286046923.9,N,0.0,0.0
1479371475.3,286046922.9,N,0.0,0.0
1479371495.1,286046923.1,N,0.0,0.0
1479371515.9,286046924.4,N,0.0,0.0
1479371535.7,286046923.8,N,0.0,0.0
1479371555.6,286046922.9,N,0.0,0.0
1479371575.4,286046923.1,N,0.0,0.0
1479371595.2,286046923.1,N,0.0,0.0
1479371615.1,286046923.3,N,0.0,0.0
1479371616.0,286046923.3,N,0.0,0.0
1479371635.8,286046925.8,N,0.0,0.0
1479371655.6,286046925.1,N,0.0,0.0
1479371675.5,286046927.0,N,0.0,0.0
1479371695.3,286046927.3,N,0.0,0.0
1479371715.2,286046925.0,N,0.0,0.0
1479371735.9,286046923.0,N,0.0,0.0
1479371755.7,286046923.2,N,0.0,0.0
1479371775.6,286046924.4,N,0.0,0.0
1479371795.4,286046926.0,N,0.0,0.0
1479371815.2,286046923.4,N,0.0,0.0
1479371835.1,286046924.2,N,0.0,0.0
1479371836.0,286046924.2,N,0.0,0.0
1479371855.8,286046923.6,N,0.0,0.0
1479371875.7,286046925.7,N,0.0,0.0
1479371895.5,286046925.8,N,0.0,0.0
1479371915.3,286046927.5,N,0.0,0.0
1479371935.2,286046927.3,N,0.0,0.0
1479371955.0,286046927.4,N,0.0,0.0
1479371955.9,286046927.4,N,0.0,0.0
1479371975.8,286046925.3,N,0.0,0.0
1479371995.6,286046924.8,N,0.0,0.0
1479372015.4,286046926.8,N,0.0,0.0
1479372035.3,286046926.4,N,0.0,0.0
1479372055.1,286046927.5,N,0.0,0.0
1479372075.8,286046928.8,N,0.0,0.0
1479372095.7,286046928.6,N,0.0,0.0
1479372115.5,286046928.9,N,0.0,0.0
1479372135.3,286046928.9,N,0.0,0.0
1479372155.2,286046929.0,N,0.0,0.0
1479372175.0,286046928.2,N,0.0,0.0
1479372175.9,286046928.2,N,0.0,0.0
1479372195.8,286046930.3,N,0.0,0.0
1479372215.6,286046930.0,N,0.0,0.0
1479372235.4,286046929.5,N,0.0,0.0
1479372255.3,286046929.8,N,0.0,0.0
1479372275.1,286046929.9,N,0.0,0.0
1479372295.9,286046928.1,N,0.0,0.0
1479372315.7,286046930.6,N,0.0,0.0
1479372335.5,286046927.8,N,0.0,0.0
1479372355.4,286046930.3,N,0.0,0.0
1479372375.2,286046929.6,N,0.0,0.0
1479372395.0,286046929.7,N,0.0,0.0
1479372395.9,286046929.7,N,0.0,0.0
1479372415.8,286046930.5,N,0.0,0.0
1479372435.6,286046931.9,N,0.0,0.0
1479372455.5,286046931.1,N,0.0,0.0
1479372475.3,286046932.1,N,0.0,0.0
1479372495.1,286046929.8,N,0.0,0.0
1479372515.9,286046931.2,N,0.0,0.0
1479372535.7,286046932.8,N,0.0,0.0
1479372555.5,286046933.1,N,0.0,0.0
1479372575.4,286046932.5,N,0.0,0.0
1479372595.2,286046934.2,N,0.0,0.0
1479372615.1,286046935.1,N,0.0,0.0
1479372616.0,286046935.1,N,0.0,0.0
1479372635.8,286046932.6,N,0.0,0.0
1479372655.6,286046934.8,N,0.0,0.0
1479372675.5,286046934.4,N,0.0,0.0
1479372695.3,286046933.1,N,0.0,0.0
1479372715.1,286046933.3,N,0.0,0.0
1479372735.9,286046933.7,N,0.0,0.0
1479372755.7,286046935.6,N,0.0,0.0
1479372775.6,286046932.9,N,0.0,0.0
1479372795.4,286046934.4,N,0.0,0.0
1479372815.2,286046936.3,N,0.0,0.0
1479372835.1,286046938.5,N,0.0,0.0
1479372836.0,286046938.5,N,0.0,0.0
1479372855.8,286046936.5,N,0.0,0.0
1479372875.6,286046936.7,N,0.0,0.0
1479372895.5,286046936.4,N,0.0,0.0
1479372915.3,286046938.3,N,0.0,0.0
1479372935.2,286046936.9,N,0.0,0.0
1479372955.9,286046935.9,N,0.0,0.0
1479372975.7,286046936.2,N,0.0,0.0
1479372995.6,286046938.4,N,0.0,0.0
1479373015.4,286046936.4,N,0.0,0.0
1479373035.2,286046936.3,N,0.0,0.0
1479373055.1,286046938.7,N,0.0,0.0
1479373056.0,286046938.7,N,0.0,0.0
1479373075.8,286046937.9,N,0.0,0.0
1479373095.7,286046937.6,N,0.0,0.0
1479373115.5,286046937.7,N,0.0,0.0
1479373135.3,286046938.4,N,0.0,0.0
1479373155.2,286046938.4,N,0.0,0.0
1479373175.0,286046935.9,N,0.0,0.0
1479373175.9,286046935.9,N,0.0,0.0
1479373195.8,286046934.1,N,0.0,0.0
